Weather History for Greenwood, MS

Change the Weather History Date:

Wednesday, February 6, 2013

  Actual Average Record
Temperature  
Mean Temperature 52 °F 45 °F  
Max Temperature 70 °F 56 °F 74 °F (1973)
Min Temperature 34 °F 35 °F 18 °F (1977)
Degree Days  
Heating Degree Days 13 20  
Month to date heating degree days 113 121  
Since 1 July heating degree days 1680 1860  
Cooling Degree Days 0 0  
Month to date cooling degree days 0 0  
Year to date cooling degree days 12 2  
Growing Degree Days 2 (Base 50)    
Moisture  
Dew Point 40 °F    
Average Humidity 70    
Maximum Humidity 100    
Minimum Humidity 40    
Precipitation  
Precipitation T in 0.16 in 1.19 in (1987)
Month to date precipitation 0.03 0.95  
Year to date precipitation 8.67 5.47  
Sea Level Pressure  
Sea Level Pressure 30.10 in    
Wind  
Wind Speed 5 mph (ENE)    
Max Wind Speed 13 mph    
Max Gust Speed 16 mph    
Visibility 4 miles    
Events Fog , Rain    
T = Trace of Precipitation, MM = Missing Value Source: NWS Daily Summary

Daily Weather History Graph

Daily Weather History Graph

Search for Another Location

Airport:

Trip Planner

Search our weather history database for the weather conditions in past years. The results will help you decide how hot, cold, wet, or windy it might be!

Date:

Astronomy

Feb. 06, 2013 Rise Set
Actual Time 6:52 AM CST 5:36 PM CST
Civil Twilight 6:26 AM CST 6:02 PM CST
Nautical Twilight 5:57 AM CST 6:32 PM CST
Astronomical Twilight 5:28 AM CST 7:01 PM CST
Moon 3:30 AM CST (2/6) 2:00 PM CST (2/6)
Length of Visible Light 11h 36m
Length of Day
10h 44m
Waning Crescent, 17% of the Moon is Illuminated
Feb 6
Waning Crescent
Feb 10
New
Feb 17
First Quarter
Feb 25
Full
Mar 4
Last Quarter

Hourly Weather History & Observations

Time (CST) Temp. Windchill Dew Point Humidity Pressure Visibility Wind Dir Wind Speed Gust Speed Precip Events Conditions
12:02 AM 42.8 °F 40.1 °F 42.8 °F 100% 30.07 in 1.8 mi NE 4.6 mph - N/A   Partly Cloudy
12:17 AM 41.0 °F 38.0 °F 41.0 °F 100% 30.07 in 1.0 mi NE 4.6 mph - N/A   Mist
12:21 AM 39.2 °F 35.9 °F 39.2 °F 100% 30.07 in 2.0 mi NE 4.6 mph - N/A   Partly Cloudy
12:28 AM 39.2 °F 35.9 °F 39.2 °F 100% 30.07 in 4.0 mi ENE 4.6 mph - N/A   Partly Cloudy
12:53 AM 39.2 °F - 39.2 °F 100% 30.07 in 7.0 mi Calm Calm - N/A   Clear
1:09 AM 39.2 °F - 37.4 °F 93% 30.07 in 7.0 mi Calm Calm - N/A   Scattered Clouds
1:53 AM 37.0 °F - 37.0 °F 100% 30.08 in 2.0 mi Calm Calm - N/A   Clear
2:03 AM 37.4 °F 34.9 °F 37.4 °F 100% 30.07 in 5.0 mi East 3.5 mph - N/A   Clear
2:40 AM 37.4 °F 33.8 °F 37.4 °F 100% 30.08 in 1.5 mi NE 4.6 mph - N/A   Clear
2:53 AM 36.0 °F 33.3 °F 36.0 °F 100% 30.08 in 1.0 mi NE 3.5 mph - N/A   Clear
3:00 AM 39.2 °F - 39.2 °F 100% 30.08 in 0.5 mi Calm Calm - N/A Fog Fog
3:13 AM 35.6 °F 32.8 °F 35.6 °F 100% 30.09 in 0.2 mi NE 3.5 mph - N/A Fog Fog
3:25 AM 37.4 °F 34.9 °F 37.4 °F 100% 30.09 in 1.0 mi NE 3.5 mph - N/A   Mist
3:35 AM 37.4 °F 33.8 °F 37.4 °F 100% 30.09 in 3.0 mi NE 4.6 mph - N/A   Overcast
3:53 AM 37.9 °F - 37.0 °F 97% 30.09 in 2.5 mi Calm Calm - N/A   Scattered Clouds
4:02 AM 35.6 °F 32.8 °F 35.6 °F 100% 30.09 in 1.2 mi NNE 3.5 mph - N/A   Mostly Cloudy
4:04 AM 35.6 °F 32.8 °F 33.8 °F 93% 30.10 in 0.8 mi NE 3.5 mph - N/A   Mist
4:33 AM 35.6 °F 30.7 °F 35.6 °F 100% 30.10 in 2.5 mi ENE 5.8 mph - N/A   Overcast
4:44 AM 35.6 °F 32.8 °F 35.6 °F 100% 30.10 in 1.0 mi NE 3.5 mph - N/A   Mist
4:53 AM 36.0 °F 33.3 °F 36.0 °F 100% 30.10 in 2.0 mi NE 3.5 mph - N/A   Mostly Cloudy
5:00 AM 35.6 °F 32.8 °F 35.6 °F 100% 30.10 in 4.0 mi NE 3.5 mph - N/A   Scattered Clouds
5:06 AM 35.6 °F 32.8 °F 35.6 °F 100% 30.11 in 1.8 mi ENE 3.5 mph - N/A   Scattered Clouds
5:33 AM 35.6 °F 32.8 °F 35.6 °F 100% 30.12 in 1.0 mi NE 3.5 mph - N/A   Mist
5:35 AM 35.6 °F 31.7 °F 35.6 °F 100% 30.12 in 0.8 mi ENE 4.6 mph - N/A   Mist
5:53 AM 37.0 °F 33.3 °F 37.0 °F 100% 30.12 in 1.5 mi NE 4.6 mph - N/A   Mostly Cloudy
6:03 AM 35.6 °F 31.7 °F 35.6 °F 100% 30.12 in 0.8 mi NNE 4.6 mph - N/A   Mist
6:17 AM 35.6 °F 32.8 °F 35.6 °F 100% 30.13 in 0.5 mi NNE 3.5 mph - N/A Fog Fog
6:25 AM 35.6 °F 32.8 °F 35.6 °F 100% 30.13 in 0.2 mi NNE 3.5 mph - N/A Fog Fog
6:48 AM 35.6 °F 32.8 °F 35.6 °F 100% 30.15 in 0.8 mi NNE 3.5 mph - N/A   Mist
6:53 AM 36.0 °F 33.3 °F 36.0 °F 100% 30.15 in 0.5 mi NE 3.5 mph - N/A Fog Fog
7:02 AM 35.6 °F 32.8 °F 35.6 °F 100% 30.15 in 0.2 mi NNE 3.5 mph - N/A Fog Fog
7:16 AM 35.6 °F 31.7 °F 33.8 °F 93% 30.15 in 1.0 mi NE 4.6 mph - N/A   Mist
7:20 AM 35.6 °F 31.7 °F 35.6 °F 100% 30.15 in 2.5 mi ENE 4.6 mph - N/A   Clear
7:28 AM 37.4 °F 32.8 °F 37.4 °F 100% 30.16 in 5.0 mi NE 5.8 mph - N/A   Clear
7:53 AM 39.9 °F - 39.9 °F 100% 30.18 in 4.0 mi Calm Calm - N/A   Clear
8:53 AM 46.0 °F 43.9 °F 45.0 °F 96% 30.17 in 8.0 mi NE 4.6 mph - N/A   Clear
9:53 AM 57.9 °F - 46.9 °F 67% 30.17 in 10.0 mi ESE 6.9 mph - N/A   Clear
10:53 AM 63.0 °F - 46.0 °F 54% 30.17 in 10.0 mi SE 12.7 mph - N/A   Clear
11:53 AM 66.9 °F - 45.0 °F 45% 30.14 in 10.0 mi SE 8.1 mph - N/A   Clear
12:53 PM 66.9 °F - 46.0 °F 47% 30.11 in 10.0 mi South 3.5 mph - N/A   Clear
1:53 PM 69.1 °F - 45.0 °F 42% 30.09 in 10.0 mi Variable 3.5 mph - N/A   Clear
2:53 PM 69.1 °F - 44.1 °F 40% 30.05 in 10.0 mi ESE 6.9 mph - N/A   Clear
3:53 PM 69.1 °F - 44.1 °F 40% 30.04 in 10.0 mi East 8.1 mph - N/A   Clear
4:53 PM 66.0 °F - 46.0 °F 48% 30.03 in 10.0 mi Calm Calm - N/A   Clear
5:53 PM 63.0 °F - 46.9 °F 56% 30.05 in 10.0 mi ESE 5.8 mph - N/A   Clear
6:53 PM 61.0 °F - 45.0 °F 56% 30.06 in 10.0 mi East 6.9 mph - N/A   Scattered Clouds
7:53 PM 62.1 °F - 44.1 °F 52% 30.04 in 10.0 mi East 8.1 mph - N/A   Mostly Cloudy
8:53 PM 61.0 °F - 44.1 °F 54% 30.04 in 10.0 mi East 9.2 mph - N/A   Mostly Cloudy
9:53 PM 60.1 °F - 45.0 °F 57% 30.02 in 10.0 mi East 8.1 mph - N/A   Overcast
10:53 PM 60.1 °F - 46.0 °F 60% 30.04 in 10.0 mi ESE 3.5 mph - N/A   Overcast
11:53 PM 55.9 °F - 50.0 °F 80% 30.03 in 10.0 mi ENE 4.6 mph - 0.00 in Rain Light Rain